GW2255 Weather Reports


time (UTC)temp
C
wind
direction
speed
KPH
gust
KPH
rain 1hr
cm
rain 24hr
cm
rain mn
cm
humidity
%
barometer
mb
20260506124605 12 49 9.7 20.9 0.00 0.00 0.00 63 1012.7
20260506123111 13 310 6.4 19.3 0.00 0.00 0.00 63 1012.6
20260506121612 13 344 8.0 24.1 0.00 0.00 0.00 63 1012.6
20260506120059 12 5 9.7 24.1 0.00 0.00 0.00 66 1012.7
20260506114557 11 23 9.7 27.4 0.00 0.00 0.00 73 1012.8
20260506113056 10 327 11.3 24.1 0.00 0.00 0.00 76 1012.7
20260506111552 10 28 11.3 25.7 0.00 0.00 0.00 77 1012.7
20260506110104 11 265 12.9 25.7 0.00 0.00 0.00 77 1012.7
20260506104557 10 306 6.4 17.7 0.00 0.00 0.00 80 1012.7
20260506103056 10 333 6.4 17.7 0.00 0.00 0.00 83 1012.8
20260506101605 10 5 4.8 25.7 0.00 0.00 0.00 76 1012.7
20260506100053 11 348 8.0 20.9 0.00 0.00 0.00 70 1012.5
20260506094557 11 22 4.8 25.7 0.00 0.00 0.00 68 1012.4
20260506093100 11 22 9.7 25.7 0.00 0.00 0.00 69 1012.4
20260506091556 10 34 8.0 24.1 0.00 0.00 0.00 71 1012.4
20260506090107 10 331 8.0 22.5 0.00 0.00 0.00 71 1012.3
20260506084618 10 302 6.4 22.5 0.00 0.00 0.00 73 1012.5
20260506083055 8 319 8.0 20.9 0.00 0.00 0.00 76 1012.3
20260506081603 8 360 11.3 24.1 0.00 0.00 0.00 76 1012.4
20260506073101 8 360 11.3 24.1 0.00 0.00 0.00 79 1012.5
20260506071559 8 292 4.8 14.5 0.00 0.00 0.00 82 1012.3
20260506061556 6 9 8.0 17.7 0.00 0.00 0.00 86 1011.9
20260506050113 6 360 3.2 14.5 0.00 0.00 0.00 84 1011.9
20260506044554 6 336 4.8 14.5 0.00 0.00 0.00 83 1011.9
20260506043054 6 352 6.4 16.1 0.00 0.00 0.00 83 1011.8
20260506041603 6 5 4.8 19.3 0.00 0.00 0.00 82 1011.9
20260506040057 7 343 8.0 20.9 0.00 0.00 0.00 81 1011.9
20260506034556 7 344 6.4 16.1 0.00 0.00 0.00 80 1012.0
20260506033053 7 32 8.0 19.3 0.00 0.00 0.00 80 1012.1
20260506031555 7 29 8.0 20.9 0.00 0.00 0.00 80 1012.1
20260506030056 8 10 8.0 22.5 0.00 0.00 0.00 79 1012.2
20260506024606 8 12 9.7 24.1 0.00 0.00 0.00 79 1012.2
20260506023109 8 344 9.7 22.5 0.00 0.00 0.00 78 1012.3
20260506021554 8 296 8.0 19.3 0.00 0.00 0.00 78 1012.4
20260506020059 8 5 8.0 19.3 0.00 0.00 0.00 79 1012.5
20260506014559 8 330 3.2 17.7 0.00 0.00 0.00 79 1012.6
20260506013104 8 36 4.8 14.5 0.00 0.00 0.00 80 1012.7
20260506011606 8 352 6.4 14.5 0.00 0.00 0.00 80 1012.5
20260506010055 8 360 4.8 24.1 0.00 0.00 0.00 80 1012.6
20260506004600 9 9 8.0 20.9 0.00 0.00 0.00 81 1012.7
20260506003059 9 333 3.2 12.9 0.00 0.00 0.00 81 1012.7
20260506001601 9 350 4.8 12.9 0.00 0.00 0.00 80 1012.8
20260506000105 9 340 4.8 16.1 0.00 0.00 0.00 80 1012.8
20260505234558 9 5 6.4 17.7 0.00 0.00 0.00 79 1012.9
20260505233058 9 29 4.8 14.5 0.00 0.00 0.00 79 1013.0
20260505231558 10 348 3.2 11.3 0.00 0.00 0.00 78 1013.0
20260505230122 10 5 1.6 12.9 0.00 0.00 0.00 77 1013.0
20260505224555 10 360 3.2 14.5 0.00 0.00 0.00 77 1013.0
20260505223054 10 348 3.2 16.1 0.00 0.00 0.00 76 1013.1
20260505221559 10 15 6.4 19.3 0.00 0.00 0.00 75 1013.1
20260505214609 10 21 6.4 16.1 0.00 0.00 0.00 75 1013.1
20260505213054 10 36 4.8 17.7 0.00 0.00 0.00 75 1013.0
20260505211601 11 22 3.2 16.1 0.00 0.00 0.00 75 1013.0
20260505204603 11 42 8.0 20.9 0.00 0.00 0.00 79 1013.0
20260505203106 11 5 6.4 14.5 0.00 0.00 0.00 79 1012.9
20260505201555 11 40 3.2 11.3 0.00 0.00 0.00 79 1012.8
20260505200106 12 10 3.2 12.9 0.00 0.00 0.00 78 1012.8
20260505194551 12 21 4.8 16.1 0.00 0.00 0.00 76 1012.6
20260505193102 12 86 3.2 24.1 0.00 0.00 0.00 73 1012.4
20260505191557 12 40 3.2 14.5 0.00 0.00 0.00 70 1012.3
20260505190054 13 16 6.4 19.3 0.00 0.00 0.00 69 1012.1
20260505184557 13 5 9.7 19.3 0.00 0.00 0.00 66 1011.9
20260505183057 13 0 1.6 8.0 0.00 0.00 0.00 63 1011.7
20260505181559 13 38 1.6 6.4 0.00 0.00 0.00 62 1011.7
20260505180058 13 0 3.2 9.7 0.00 0.00 0.00 62 1011.5
20260505174602 13 98 3.2 9.7 0.00 0.00 0.00 61 1011.5
20260505173055 13 109 3.2 9.7 0.00 0.00 0.00 60 1011.6
20260505171556 13 107 4.8 12.9 0.00 0.00 0.00 60 1011.6
20260505170055 13 106 4.8 9.7 0.00 0.00 0.00 60 1011.6
20260505164554 13 100 4.8 9.7 0.00 0.00 0.00 60 1011.6
20260505163054 13 148 3.2 14.5 0.00 0.00 0.00 59 1011.7
20260505161551 14 133 6.4 16.1 0.00 0.00 0.00 58 1011.7
20260505153055 15 110 4.8 12.9 0.00 0.00 0.00 60 1011.8
20260505151556 14 94 8.0 12.9 0.00 0.00 0.00 61 1011.9
20260505150106 13 136 6.4 14.5 0.00 0.00 0.00 63 1012.0
20260505130109 16 37 4.8 16.1 0.00 0.00 0.00 48 1012.2